Location: Dead Woman Crossing
(43.5369°N, 106.3228°W)
Time: 06:55:46
(UTC+00:00)

NANOSAT C BR1 - Pass Details

Date: 28 June 2022
Orbit: 584 x 599 km, 98.0° (Epoch: 17 August)

Event Time Altitude Azimuth Distance (km) Brightness Sun altitude
Rises 08:47:25 0° 19° (NNE) 2,847 ? -19.4°
Reaches altitude 10° 08:49:41 10° 27° (NNE) 1,942 ? -19.3°
Maximum altitude 08:53:43 43° 99° (E) 851 ? -19.0°
Enters shadow 08:55:32 27° 152° (SSE) 1,160 ? -18.8°
